Temperature
18 19 19 19 18 18 18 18 18 18 18 18 18 18 18 18 18 18 18 18 18 18 18 18 18 18 18 18 19 19 19 19 19 19 19 18 18 18 18 18 18 18 18
18 19 18 18 18 18 18 18 18 18 18 18 18 18 18 18 18 18 18 18 18 18 18 18 18 18 18 18 18 18 18 19 19 18 18 18 18 18 18 18 18 18 18
18 18 18 18 18 18 18 18 18 18 18 18 18 18 18 18 18 18 18 18 18 18 18 18 18 18 18 18 18 18 18 18 18 18 18 18 18 18 18 18 18 18 18
18 18 18 18 18 18 18 18 18 18 18 18 18 18 18 18 18 17 17 17 17 17 18 18 18 18 18 18 18 18 18 18 18 18 18 18 18 18 18 18 18 18 18
18 18 18 18 18 18 18 18 18 18 17 17 17 17 17 17 17 17 17 17 17 17 17 17 17 17 18 18 18 18 18 18 18 18 18 18 18 18 18 18 18 18 18
18 18 18 18 18 18 18 17 17 17 17 17 17 17 17 17 17 17 17 17 17 17 17 17 17 17 17 17 18 18 18 18 18 18 18 18 18 18 18 18 18 18 18
18 18 18 18 18 18 17 17 17 17 17 17 17 17 17 17 17 17 17 17 17 17 17 17 17 17 17 17 17 17 18 18 18 18 18 18 18 18 18 18 18 18 18
19 18 18 18 18 18 17 17 17 17 17 17 17 17 17 17 16 16 16 16 16 16 16 16 17 17 17 17 17 17 18 18 18 17 18 17 18 18 18 18 18 18 18
19 19 18 18 18 18 17 17 17 17 17 17 17 17 16 16 16 16 16 16 16 16 16 16 16 16 16 17 17 17 17 18 18 18 17 17 18 18 18 18 18 18 18
19 19 19 18 18 18 18 17 17 17 17 16 16 16 16 16 16 16 16 16 16 16 16 16 16 16 16 17 17 17 17 17 17 18 17 17 18 18 18 18 18 18 18
19 19 19 19 18 18 18 18 17 17 17 16 16 16 16 16 16 16 16 16 16 16 16 16 16 16 16 16 17 17 17 17 17 17 17 17 17 18 18 18 18 18 18
20 20 19 19 19 18 18 18 17 17 17 16 16 16 16 16 16 16 16 16 15 15 15 15 16 16 16 16 16 16 17 17 17 17 17 17 17 18 18 18 18 18 18
20 20 20 20 19 19 18 18 18 17 17 17 17 16 16 16 16 16 16 15 15 15 15 15 15 16 16 16 16 16 17 17 17 17 17 17 17 17 18 18 18 18 18
21 20 20 20 20 19 19 18 18 18 17 17 17 16 16 16 16 16 16 16 15 15 15 15 15 16 16 16 16 16 16 17 17 17 17 17 17 17 17 17 17 18 18
21 20 20 20 20 19 19 19 18 18 18 17 17 16 16 16 16 15 15 15 15 15 15 15 15 15 15 15 16 16 16 16 16 16 16 17 17 17 17 17 17 17 17
21 21 20 20 20 19 19 19 18 18 18 17 17 16 16 16 16 15 15 15 15 15 15 15 15 15 15 15 15 16 16 16 16 16 16 16 17 17 17 17 17 17 17
22 21 20 20 20 19 19 18 18 18 17 17 17 16 16 16 15 15 15 15 15 14 14 14 15 15 15 15 15 15 16 16 16 16 16 16 16 17 17 17 17 17 17
22 21 21 20 19 19 18 18 18 18 17 17 16 16 16 15 15 15 15 14 14 14 14 14 14 14 15 15 15 15 16 16 16 16 16 16 16 16 17 17 17 17 17
22 21 21 20 19 19 18 18 18 17 17 16 16 16 15 15 15 15 14 14 14 14 14 14 14 14 15 15 15 15 16 16 16 16 16 16 16 16 16 17 17 17 17
22 22 21 20 19 19 18 18 17 17 17 16 16 16 15 15 15 14 14 14 14 14 14 14 14 14 14 15 15 15 15 16 16 16 16 16 16 16 16 16 17 17 17
22 22 21 20 19 19 18 18 17 17 17 16 16 16 15 15 14 14 14 14 14 14 14 14 14 14 14 14 15 15 15 16 16 16 16 16 16 16 16 16 16 16 17
22 21 21 20 20 19 19 18 17 17 17 16 16 16 15 15 14 14 14 14 14 14 14 14 14 14 14 14 15 15 15 15 16 16 16 16 16 16 16 16 16 16 16
22 21 21 20 20 19 19 18 17 17 17 16 16 16 15 15 15 14 14 14 14 14 14 14 14 14 14 14 14 14 15 15 15 15 15 16 16 16 16 16 16 16 16
22 21 21 20 20 19 19 18 18 17 17 17 16 16 16 15 15 14 14 14 14 14 14 14 14 14 14 14 14 14 14 15 15 15 15 15 15 15 15 16 16 16 16
21 21 20 20 19 19 19 18 18 17 17 16 16 16 16 16 15 15 14 14 14 14 14 14 14 14 14 14 14 14 15 15 15 15 15 15 15 15 15 15 15 16 16
21 20 20 20 19 19 19 18 18 17 17 16 16 16 16 16 16 15 15 14 14 14 14 14 14 14 14 14 14 14 14 14 14 15 15 15 15 15 15 15 15 15 15
Wind_Speed
10 12 12 12 11 10 10 10 10 10 10 10 9 9 9 8 8 8 8 7 7 7 7 8 8 8 8 8 8 8 8 8 8 7 6 6 5 6 8 10 10 9 11
13 14 12 12 11 11 11 10 10 10 10 10 9 9 9 9 8 8 7 7 7 7 7 7 7 7 7 7 7 7 7 7 8 8 7 5 4 5 7 9 11 9 11
14 14 13 12 11 11 11 11 11 10 10 9 9 9 9 8 8 7 7 6 6 6 6 6 6 6 7 7 7 7 7 8 9 10 9 4 3 6 8 9 10 10 10
14 14 14 12 12 12 11 11 11 11 10 9 9 8 8 7 7 6 6 6 6 6 6 6 5 6 6 7 7 7 7 8 10 11 7 3 5 8 9 8 9 9 9
15 16 14 13 12 12 12 11 11 10 10 9 8 8 7 7 6 6 6 6 6 6 6 5 5 5 6 6 7 7 8 9 11 11 5 4 7 8 8 8 8 8 8
15 16 14 13 13 12 12 11 10 10 9 8 8 7 7 7 6 6 6 6 6 6 6 6 5 5 5 6 6 7 8 10 11 9 4 4 7 6 6 7 7 7 7
14 15 14 13 13 12 11 11 10 9 9 8 7 6 6 5 5 5 6 6 6 6 6 6 6 6 6 6 6 7 8 10 10 8 2 4 7 6 5 6 6 6 7
13 14 14 13 13 12 11 10 9 8 8 7 6 5 4 3 2 3 4 5 6 6 6 6 6 6 6 6 6 7 8 9 9 8 2 5 7 6 4 4 5 6 6
9 11 13 14 13 12 12 10 8 7 5 4 3 1 1 2 2 1 2 4 5 6 6 6 6 6 7 7 7 8 8 9 9 8 4 6 7 6 4 4 4 4 5
7 7 8 11 13 13 12 10 9 7 5 3 2 3 4 6 6 5 2 3 3 4 5 6 6 7 8 9 9 9 9 9 9 9 1 7 8 5 4 3 3 3 4
6 5 6 7 7 9 11 11 10 8 6 5 6 7 7 4 3 5 4 2 1 4 5 7 8 10 11 11 12 11 9 8 8 4 3 7 7 5 3 2 2 3 4
6 5 6 6 6 5 5 8 7 7 6 4 2 0 4 4 4 2 3 3 4 6 7 8 11 12 11 9 9 10 7 7 5 1 5 8 7 5 3 2 3 3 4
7 5 5 6 5 5 4 4 2 3 3 2 4 4 5 6 5 3 1 1 4 5 3 5 8 7 6 3 2 5 4 3 2 1 6 8 7 5 3 2 3 4 4
6 5 4 3 5 5 5 2 2 2 2 2 5 6 4 2 3 3 2 4 5 4 3 4 4 5 6 7 5 3 1 2 1 1 5 7 7 5 3 2 3 4 4
7 6 5 3 4 5 4 1 2 3 3 4 4 4 4 2 3 3 2 2 4 6 4 4 4 4 5 5 5 4 2 2 2 1 4 7 6 5 4 3 4 4 5
8 8 6 4 4 3 4 2 2 3 3 3 4 5 6 4 3 2 3 3 3 5 4 4 5 4 4 3 4 4 3 2 2 1 3 5 6 6 5 5 5 5 5
8 9 7 5 4 4 5 4 3 2 4 3 4 6 7 5 4 3 4 4 3 6 6 4 5 4 5 4 4 3 2 2 1 2 2 3 5 6 6 5 6 6 6
8 9 8 5 5 6 5 4 3 4 4 3 5 6 8 8 7 4 4 4 4 5 4 4 3 4 5 5 4 3 1 1 2 2 2 2 4 5 6 6 6 7 6
7 9 9 6 5 6 5 3 2 3 2 2 5 6 8 9 9 5 3 3 5 3 4 6 5 4 5 5 4 2 2 1 1 1 1 1 2 5 6 7 8 7 7
6 8 9 7 5 6 4 2 3 3 2 3 4 5 5 6 7 6 3 4 4 4 4 5 5 5 3 4 5 3 2 1 0 1 1 1 0 2 5 6 7 7 8
6 7 8 8 6 5 3 2 2 2 1 2 2 5 3 4 5 4 3 4 3 3 4 5 4 6 4 4 3 3 3 1 1 1 1 1 0 1 3 5 6 5 7
5 5 7 7 7 6 4 2 2 2 0 2 1 2 2 4 4 5 4 4 4 2 3 4 4 4 4 4 3 2 2 2 3 2 1 1 1 1 1 3 3 3 5
4 4 5 6 7 7 5 2 2 2 1 1 1 2 1 1 2 3 4 4 4 3 3 3 4 5 4 4 3 2 2 2 2 2 2 2 2 1 1 1 2 2 4
4 4 5 6 7 7 5 3 1 1 0 1 1 2 1 2 1 0 3 4 4 3 3 4 4 3 3 4 3 2 1 1 1 1 2 2 3 3 2 2 2 3 3
5 5 4 5 6 6 5 4 1 0 1 0 1 1 1 2 2 2 1 3 3 2 2 3 3 3 3 3 3 3 3 2 1 0 1 2 2 2 1 1 2 2 3
6 5 4 5 5 4 3 3 3 2 1 1 1 1 2 2 2 3 2 2 2 2 2 2 3 3 2 2 3 2 2 2 2 1 0 1 1 1 0 1 2 1 3
Wind_Direction
103 104 104 100 98 95 92 88 84 81 78 75 70 66 62 59 58 55 48 44 39 35 37 36 31 24 21 19 18 19 17 13 6 355 351 357 12 25 25 22 20 28 29
110 107 103 100 96 93 91 87 83 80 76 73 69 65 62 59 55 50 44 39 34 31 31 28 25 17 15 11 7 6 5 358 347 337 331 338 10 37 34 31 33 31 32
111 112 102 96 94 91 89 85 82 78 75 71 67 63 60 56 50 44 38 32 27 23 20 17 16 7 5 360 356 353 352 345 335 328 320 313 66 61 45 38 36 35 36
106 103 99 96 93 89 86 84 81 76 72 68 65 61 56 50 43 35 29 24 19 16 12 6 3 357 352 347 345 345 342 337 330 324 327 28 62 64 50 40 36 37 38
99 97 98 96 93 90 87 84 80 76 71 67 63 58 52 45 39 33 25 17 13 8 3 2 360 350 342 337 337 338 336 332 327 316 324 50 75 66 52 42 37 38 42
104 102 102 100 96 93 90 85 81 77 70 64 58 52 46 38 33 28 22 16 9 1 357 356 353 345 336 330 330 331 329 326 319 311 348 55 86 71 53 44 39 39 43
112 113 113 110 105 100 95 89 82 77 70 62 54 46 40 34 29 24 17 10 4 357 353 349 342 337 332 327 323 321 319 317 300 295 313 78 95 79 56 46 41 42 46
115 118 123 124 120 114 105 96 89 79 70 63 55 44 31 21 19 19 21 13 3 355 349 343 338 332 324 317 311 308 307 305 310 318 319 107 101 81 58 47 45 47 50
113 126 137 142 135 127 118 112 106 98 90 82 71 46 311 281 271 274 58 29 8 354 342 335 326 318 309 300 294 291 290 290 293 289 300 110 105 87 64 50 49 54 57
123 130 140 143 141 144 139 136 137 140 148 155 193 256 267 264 247 237 162 73 7 340 326 317 306 296 291 285 279 275 275 281 269 270 220 121 108 90 68 63 58 71 71
123 126 124 120 125 141 149 149 165 173 190 204 217 243 273 277 221 210 129 131 292 297 298 295 290 285 283 276 264 261 265 260 262 252 117 122 113 100 83 88 95 100 93
140 138 125 125 134 133 114 143 171 159 172 196 106 319 318 354 347 16 130 206 259 274 281 280 282 283 275 260 244 238 248 255 277 284 124 127 119 116 107 107 117 121 116
133 124 125 139 134 133 124 117 107 129 144 98 49 24 17 5 350 26 66 183 274 281 304 309 282 283 294 298 248 227 235 267 266 99 128 125 119 120 125 130 138 136 134
115 118 107 111 123 110 91 94 168 114 81 80 46 20 40 13 345 17 5 26 341 354 357 334 313 319 337 328 321 311 294 272 279 103 141 140 135 135 149 155 151 150 146
136 132 109 88 79 95 104 260 85 92 53 71 64 5 45 29 9 1 351 26 4 3 357 341 321 344 335 319 322 330 342 326 314 78 137 153 150 151 160 166 162 160 159
145 133 122 100 88 90 113 104 80 79 121 64 58 7 43 40 19 357 356 14 13 354 342 334 327 330 315 319 320 324 324 317 321 338 169 166 169 167 169 178 174 165 165
141 129 118 113 97 72 59 42 71 69 68 65 64 19 27 40 21 27 8 5 2 352 351 345 337 334 327 324 318 312 307 319 289 275 233 178 172 176 179 182 182 172 169
135 126 127 125 112 95 76 46 33 54 46 44 54 39 17 18 25 38 13 353 353 358 354 332 348 346 340 337 331 321 323 289 264 238 237 195 174 172 176 185 182 175 172
135 137 136 125 117 107 103 106 60 66 62 50 59 53 21 13 15 26 2 344 358 4 1 346 3 348 337 330 314 307 319 321 288 277 220 188 166 160 164 174 179 178 173
139 131 125 124 123 118 114 102 90 70 45 65 71 70 40 6 10 11 346 358 12 7 359 346 347 334 322 317 326 345 322 298 307 1 42 65 99 165 160 161 168 180 179
143 136 136 143 137 120 107 96 91 84 39 77 73 72 34 13 15 2 347 348 1 6 2 357 349 336 337 336 342 337 329 337 33 42 30 54 1 57 107 138 159 171 173
141 147 149 142 135 125 121 127 132 117 87 107 86 97 43 33 23 357 358 345 350 358 10 352 350 342 335 347 344 342 342 1 10 15 23 43 54 43 102 128 135 155 163
138 145 135 133 132 128 136 117 83 85 307 96 138 124 118 84 52 8 344 338 338 2 8 354 2 357 340 333 356 14 8 351 336 348 15 34 46 43 49 79 100 102 138
131 129 133 134 133 132 134 124 144 180 160 157 141 134 213 158 125 37 331 323 329 353 15 355 13 353 345 338 338 345 331 324 349 335 346 14 30 45 37 45 64 83 98
98 100 110 121 120 125 135 142 198 298 305 354 81 119 263 183 165 161 287 306 325 351 20 1 351 351 353 353 339 334 337 342 319 186 308 342 13 23 37 74 86 71 87
85 91 95 106 107 117 141 162 187 224 268 285 269 220 271 236 191 177 206 281 306 341 3 344 330 341 337 339 336 347 353 358 335 340 315 316 352 318 5 90 123 121 98
Height
1514 1514 1515 1516 1517 1518 1518 1519 1520 1521 1522 1522 1523 1523 1524 1524 1524 1524 1525 1525 1525 1525 1525 1525 1525 1525 1525 1525 1525 1524 1524 1524 1523 1523 1523 1522 1522 1521 1520 1519 1518 1516 1514
1515 1516 1516 1517 1518 1519 1519 1520 1521 1522 1522 1523 1523 1524 1524 1524 1524 1525 1525 1525 1525 1525 1525 1525 1525 1525 1525 1525 1525 1525 1524 1524 1524 1524 1524 1523 1522 1522 1521 1520 1518 1517 1515
1516 1516 1517 1518 1518 1519 1520 1521 1521 1522 1523 1523 1524 1524 1524 1524 1525 1525 1525 1525 1525 1525 1525 1525 1525 1525 1525 1525 1525 1525 1524 1524 1524 1524 1524 1523 1523 1522 1521 1520 1519 1518 1516
1517 1518 1518 1519 1519 1520 1521 1521 1522 1522 1523 1523 1524 1524 1524 1524 1524 1525 1525 1525 1525 1525 1525 1525 1525 1525 1524 1524 1524 1524 1524 1524 1524 1524 1524 1524 1524 1523 1522 1521 1520 1519 1517
1518 1519 1520 1520 1520 1521 1521 1522 1522 1523 1523 1523 1524 1524 1524 1524 1524 1524 1524 1524 1524 1524 1524 1524 1524 1524 1524 1524 1524 1524 1524 1524 1524 1524 1524 1524 1524 1523 1522 1522 1521 1520 1519
1520 1520 1521 1521 1521 1522 1522 1523 1523 1523 1523 1524 1524 1524 1524 1524 1524 1524 1524 1523 1523 1523 1523 1523 1522 1522 1523 1523 1523 1523 1523 1523 1523 1524 1524 1524 1524 1523 1523 1522 1521 1520 1520
1521 1521 1522 1522 1523 1523 1523 1524 1524 1524 1524 1524 1524 1524 1524 1524 1523 1523 1523 1523 1522 1522 1521 1521 1521 1521 1521 1521 1521 1521 1522 1522 1523 1523 1524 1524 1524 1524 1523 1522 1522 1521 1521
1523 1523 1523 1524 1524 1524 1524 1525 1525 1525 1524 1524 1524 1524 1524 1524 1523 1523 1522 1522 1521 1521 1520 1520 1520 1520 1520 1520 1520 1520 1520 1521 1522 1522 1523 1523 1523 1523 1523 1523 1522 1522 1522
1525 1525 1525 1525 1525 1525 1526 1526 1526 1525 1525 1525 1525 1524 1524 1524 1523 1523 1522 1522 1521 1520 1520 1519 1519 1519 1519 1519 1519 1519 1519 1520 1521 1522 1522 1522 1523 1523 1523 1523 1523 1522 1522
1526 1527 1527 1527 1527 1526 1527 1527 1527 1527 1526 1526 1526 1525 1525 1524 1524 1523 1522 1522 1521 1520 1519 1518 1518 1518 1518 1518 1518 1518 1518 1518 1519 1520 1521 1521 1522 1522 1523 1523 1523 1523 1523
1528 1528 1529 1529 1529 1529 1528 1528 1528 1527 1527 1527 1526 1526 1526 1525 1525 1524 1523 1522 1521 1520 1519 1518 1518 1517 1517 1517 1517 1517 1517 1517 1518 1519 1520 1520 1521 1521 1522 1523 1523 1523 1524
1528 1529 1530 1530 1530 1531 1531 1530 1529 1529 1529 1528 1528 1527 1527 1526 1526 1525 1524 1523 1521 1520 1519 1518 1517 1517 1516 1516 1516 1516 1516 1516 1517 1518 1519 1519 1520 1521 1522 1522 1523 1523 1524
1529 1530 1530 1531 1531 1531 1531 1531 1531 1531 1530 1530 1529 1528 1527 1526 1526 1525 1524 1523 1521 1520 1519 1518 1517 1517 1517 1516 1516 1516 1516 1516 1517 1517 1517 1518 1519 1520 1521 1522 1523 1523 1524
1529 1530 1531 1532 1532 1532 1532 1531 1531 1531 1531 1530 1529 1528 1527 1527 1526 1525 1524 1523 1522 1521 1519 1518 1517 1517 1516 1516 1515 1515 1515 1515 1516 1516 1516 1517 1518 1519 1520 1521 1522 1523 1524
1529 1530 1532 1532 1533 1532 1532 1532 1532 1531 1531 1531 1529 1529 1528 1527 1526 1525 1524 1522 1521 1520 1519 1517 1517 1516 1515 1515 1514 1514 1514 1514 1515 1515 1515 1516 1517 1518 1519 1520 1521 1522 1524
1529 1530 1531 1532 1533 1533 1532 1532 1532 1532 1532 1531 1530 1529 1528 1527 1526 1525 1524 1522 1521 1520 1518 1517 1516 1515 1514 1514 1513 1513 1513 1513 1513 1514 1514 1515 1516 1517 1518 1519 1520 1522 1523
1528 1529 1531 1532 1533 1533 1533 1533 1533 1532 1532 1531 1530 1529 1528 1527 1526 1525 1523 1522 1521 1519 1518 1517 1516 1515 1514 1513 1513 1512 1512 1512 1513 1513 1513 1514 1515 1516 1517 1518 1520 1521 1523
1528 1529 1531 1532 1533 1532 1532 1532 1532 1532 1532 1531 1530 1529 1528 1527 1526 1525 1523 1522 1521 1519 1518 1517 1515 1514 1513 1513 1512 1512 1512 1511 1512 1512 1513 1513 1514 1515 1516 1518 1519 1521 1522
1527 1529 1530 1531 1532 1532 1532 1532 1532 1532 1531 1531 1530 1528 1527 1526 1526 1524 1523 1522 1520 1519 1517 1516 1515 1514 1513 1512 1512 1511 1511 1511 1511 1512 1512 1513 1514 1514 1516 1517 1518 1520 1522
1527 1528 1529 1531 1532 1532 1532 1532 1532 1532 1531 1531 1530 1528 1527 1526 1525 1524 1523 1522 1520 1519 1517 1516 1515 1514 1513 1512 1512 1511 1511 1511 1511 1511 1512 1512 1513 1514 1515 1516 1517 1519 1521
1527 1528 1529 1530 1531 1532 1532 1532 1532 1531 1531 1530 1530 1528 1527 1526 1525 1524 1523 1522 1520 1519 1518 1516 1515 1514 1513 1512 1512 1511 1510 1510 1511 1511 1511 1512 1513 1513 1514 1515 1516 1518 1519
1526 1528 1528 1529 1530 1531 1531 1532 1531 1531 1531 1530 1529 1528 1527 1526 1525 1524 1523 1522 1521 1520 1518 1517 1515 1514 1513 1513 1512 1511 1511 1512 1511 1511 1511 1511 1512 1513 1513 1514 1516 1517 1518
1525 1527 1528 1529 1530 1530 1531 1531 1531 1531 1531 1530 1530 1528 1527 1526 1525 1523 1522 1522 1521 1520 1519 1518 1516 1515 1514 1513 1513 1513 1512 1512 1512 1512 1511 1511 1512 1512 1513 1513 1514 1516 1517
1524 1526 1527 1528 1529 1530 1530 1530 1530 1530 1530 1530 1529 1529 1527 1526 1525 1523 1522 1522 1521 1520 1519 1518 1517 1515 1514 1513 1513 1513 1514 1513 1513 1512 1512 1512 1512 1512 1512 1513 1514 1515 1516
1524 1525 1526 1527 1528 1529 1529 1530 1530 1530 1530 1530 1529 1528 1528 1526 1525 1524 1523 1522 1521 1520 1519 1518 1517 1516 1515 1514 1513 1513 1513 1513 1512 1512 1512 1512 1512 1512 1512 1512 1513 1513 1515
1523 1524 1526 1527 1528 1528 1529 1529 1529 1529 1529 1529 1528 1528 1527 1527 1525 1524 1523 1522 1521 1520 1519 1518 1517 1516 1515 1514 1514 1513 1513 1512 1512 1512 1511 1511 1511 1511 1511 1512 1512 1513 1514